Location: Evergreen Manor
(41.4083°N, 81.4939°W)
Time: 00:42:12
(UTC+00:00)

Cosmos 1954 Rocket - Pass Details

Date: 11 December 2019
Orbit: 751 x 782 km, 74.0° (Epoch: 26 January)

Event Time Altitude Azimuth Distance (km) Brightness Sun altitude
Exits shadow 10:22:48 63° 338° (NNW) 867 4.0 -25.2°
Maximum altitude 10:23:42 88° 251° (WSW) 781 3.9 -25.1°
Drops below altitude 10° 10:29:00 10° 163° (SSE) 2,323 6.8 -24.1°
Sets 10:31:23 0° 163° (SSE) 3,249 7.6 -23.6°
